Location: Observatory
(52.1446°N, 0.4624°W)
Time: 22:36:43
(UTC+00:00)

ISS - Pass Details

Date: 10 January 2018
Orbit: 402 x 407 km, 51.6° (Epoch: 22 January)

Event Time Altitude Azimuth Distance (km) Brightness Sun altitude
Exits shadow 07:03:52 11° 267° (W) 1,431 -1.6 -9.3°
Maximum altitude 07:06:28 24° 212° (SSW) 887 -2.2 -8.9°
Drops below altitude 10° 07:09:12 10° 156° (SSE) 1,464 -0.2 -8.5°
Sets 07:11:30 0° 142° (SE) 2,322 1.3 -8.2°
